Location: *
(35.8942°N, 23.3025°E)
Time: 11:24:02
(UTC+00:00)

LilacSat-2 - Pass Details

Date: 05 April 2023
Orbit: 498 x 516 km, 97.5° (Epoch: 02 June)

Event Time Altitude Azimuth Distance (km) Brightness Sun altitude
Rises 03:21:58 0° 36° (NE) 2,602 ? -10.0°
Reaches altitude 10° 03:25:07 10° 66° (ENE) 1,716 ? -9.4°
Maximum altitude 03:26:47 13° 93° (E) 1,556 ? -9.1°
Drops below altitude 10° 03:28:27 10° 120° (ESE) 1,715 ? -8.7°
Sets 03:31:35 0° 150° (SSE) 2,599 ? -8.1°
